{"data":{"norad_id":66242,"intl_designator":"2025-245J","name":"STARLINK-35480","alt_names":[],"object_type":"PAYLOAD","status":"ACTIVE","operator":null,"country":"US","launch_date":"2025-10-29","launch_site_code":"AFETR","launch_vehicle":null,"mission":null,"orbit_class":"UNKNOWN","rcs_meters":null,"size_class":null,"mass_kg":null,"dimensions":null,"purposes":["comms"],"wikipedia_slug":null,"has_3d_model":false,"image_url":null,"decayed_at":null,"tle_current":{"epoch":"2026-05-25T02:50:53.838816Z","epoch_age_seconds":65618,"freshness":"FRESH","line1":"1 66242U 25245J   26145.11867869  .00011478  00000+0  39898-3 0  9992","line2":"2 66242  53.1602 289.2072 0001601  87.6497 272.4687 15.30205521 32957","mean_motion":15.30205521,"eccentricity":0.0001601,"inclination_deg":53.1602,"raan_deg":289.2072,"arg_perigee_deg":87.6497,"mean_anomaly_deg":272.4687,"bstar":0.00039898,"rev_number":3295,"period_min":94.10500617322,"perigee_km":474.10136573093,"apogee_km":476.29580378517,"semimajor_km":6853.3355847581,"source":"CELESTRAK","updated_at":"2026-05-25T13:38:21.134868Z"}}}